Chippewa, MI

9:47 PM EST on December 08, 2019 (GMT -0500)
Chippewa County International

Weather History for KCIU - October, 2019

Change the Weather History Date:

Monday, October 28, 2019

  Actual Average Record
Temperature  
Mean Temperature 40 °F -  
Max Temperature 43 °F 50 °F 67 °F (1989)
Min Temperature 37 °F 29 °F 19 °F (1980)
Degree Days  
Heating Degree Days 25    
Moisture  
Dew Point 39 °F    
Average Humidity 94    
Maximum Humidity 100    
Minimum Humidity 87    
Precipitation  
Precipitation 0.00 in - - ()
Sea Level Pressure  
Sea Level Pressure 30.00 in    
Wind  
Wind Speed 4 mph ()    
Max Wind Speed 10 mph    
Max Gust Speed -    
Visibility 8.9 miles    
Events Rain    
Averages and records for this station are not official NWS values.
T = Trace of Precipitation, MM = Missing Value Source: Averaged Metar Reports

Daily Weather History Graph

Daily Weather History Graph

Search for Another Location

Airport or City:

Astronomy

Oct. 28, 2019 Rise Set
Actual Time 8:12 AM EDT 6:29 PM EDT
Civil Twilight 7:41 AM EDT 7:00 PM EDT
Nautical Twilight 7:06 AM EDT 7:35 PM EDT
Astronomical Twilight 6:31 AM EDT 8:10 PM EDT
Moon 8:32 AM EDT (10/28) 7:13 PM EDT (10/28)
Length of Visible Light 11h 18m
Length of Day
10h 16m
New Moon, 0% of the Moon is Illuminated
Oct 28
New Moon
Nov 4
First Quarter
Nov 12
Full
Nov 19
Last Quarter
Nov 26
New

Hourly Weather History & Observations

Time (EDT) Temp. Windchill Dew Point Humidity Pressure Visibility Wind Dir Wind Speed Gust Speed Precip Events Conditions
12:56 AM 37.0 °F 33.3 °F 35.1 °F 93% 29.93 in 10.0 mi NW 4.6 mph - N/A   Mostly Cloudy
1:27 AM 37.4 °F 32.8 °F 35.6 °F 93% 29.91 in 10.0 mi SSE 5.8 mph - N/A   Scattered Clouds
1:56 AM 39.0 °F 35.7 °F 37.0 °F 93% 29.93 in 10.0 mi West 4.6 mph - N/A   Mostly Cloudy
2:56 AM 39.9 °F - 37.9 °F 93% 29.94 in 10.0 mi Calm Calm - N/A   Overcast
3:56 AM 39.9 °F 37.8 °F 37.9 °F 93% 29.95 in 10.0 mi South 3.5 mph - N/A   Overcast
4:56 AM 39.9 °F 37.8 °F 37.9 °F 93% 29.96 in 10.0 mi WSW 3.5 mph - N/A   Overcast
5:56 AM 39.9 °F - 37.9 °F 93% 29.96 in 10.0 mi Calm Calm - N/A   Overcast
6:56 AM 39.9 °F 37.8 °F 37.9 °F 93% 29.96 in 10.0 mi WNW 3.5 mph - N/A   Scattered Clouds
7:15 AM 39.2 °F - 39.2 °F 100% 29.94 in 10.0 mi Calm Calm - N/A   Mostly Cloudy
7:56 AM 39.9 °F - 39.0 °F 97% 29.97 in 10.0 mi Calm Calm - N/A   Overcast
8:56 AM 41.0 °F - 39.9 °F 96% 29.98 in 10.0 mi Calm Calm - N/A   Overcast
9:56 AM 42.1 °F 40.2 °F 39.9 °F 92% 29.99 in 10.0 mi North 3.5 mph - N/A   Overcast
10:56 AM 42.1 °F 37.7 °F 39.9 °F 92% 30.00 in 10.0 mi NNW 6.9 mph - 0.00 in   Overcast
11:56 AM 43.0 °F 38.2 °F 41.0 °F 93% 30.00 in 10.0 mi NNW 8.1 mph - N/A   Overcast
12:07 PM 42.8 °F 37.0 °F 42.8 °F 100% 29.98 in 10.0 mi NNW 10.4 mph - N/A   Overcast
12:19 PM 42.8 °F 37.5 °F 42.8 °F 100% 29.98 in 10.0 mi NNW 9.2 mph - N/A   Overcast
12:56 PM 43.0 °F 38.8 °F 41.0 °F 93% 29.99 in 10.0 mi North 6.9 mph - N/A   Overcast
1:56 PM 42.1 °F 37.1 °F 41.0 °F 96% 29.99 in 10.0 mi NNW 8.1 mph - N/A   Overcast
2:56 PM 43.0 °F 38.8 °F 39.9 °F 89% 30.01 in 10.0 mi NW 6.9 mph - N/A   Overcast
3:15 PM 42.8 °F 39.3 °F 41.0 °F 93% 29.99 in 3.0 mi NW 5.8 mph - 0.00 in Rain Light Rain
3:22 PM 42.8 °F 38.6 °F 41.0 °F 93% 29.99 in 3.0 mi WNW 6.9 mph - 0.00 in Rain Light Rain
3:56 PM 42.1 °F 38.4 °F 39.9 °F 92% 30.02 in 7.0 mi NW 5.8 mph - 0.00 in   Overcast
4:54 PM 42.8 °F 40.1 °F 39.2 °F 87% 30.01 in 10.0 mi WNW 4.6 mph - 0.00 in   Overcast
4:55 PM 42.1 °F 38.4 °F 39.9 °F 92% 30.04 in 10.0 mi WNW 5.8 mph - 0.00 in   Overcast
4:58 PM 42.8 °F 40.1 °F 39.2 °F 87% 30.02 in 10.0 mi WNW 4.6 mph - N/A   Overcast
5:07 PM 42.8 °F 40.1 °F 39.2 °F 87% 30.02 in 10.0 mi West 4.6 mph - N/A   Overcast
5:46 PM 41.0 °F 38.0 °F 39.2 °F 93% 30.03 in 2.5 mi West 4.6 mph - 0.00 in Rain Light Rain
5:56 PM 41.0 °F 38.0 °F 39.9 °F 96% 30.06 in 2.5 mi NW 4.6 mph - 0.00 in Rain Light Rain
6:03 PM 41.0 °F 37.1 °F 39.2 °F 93% 30.03 in 4.0 mi NNW 5.8 mph - 0.00 in Rain Light Rain
6:56 PM 41.0 °F 39.0 °F 39.9 °F 96% 30.06 in 10.0 mi NNW 3.5 mph - 0.00 in   Overcast
7:16 PM 41.0 °F 39.0 °F 39.2 °F 93% 30.04 in 10.0 mi NNW 3.5 mph - N/A   Overcast
7:34 PM 41.0 °F - 39.2 °F 93% 30.04 in 10.0 mi Calm Calm - N/A   Overcast
7:56 PM 39.9 °F 37.8 °F 39.0 °F 97% 30.07 in 10.0 mi NNW 3.5 mph - N/A   Overcast
8:41 PM 39.2 °F 37.0 °F 39.2 °F 100% 30.04 in 10.0 mi NNW 3.5 mph - N/A   Overcast
8:56 PM 39.9 °F - 39.0 °F 97% 30.06 in 10.0 mi Calm Calm - N/A   Overcast
9:18 PM 39.2 °F 37.0 °F 39.2 °F 100% 30.04 in 10.0 mi North 3.5 mph - N/A   Overcast
9:56 PM 39.9 °F - 39.0 °F 97% 30.05 in 10.0 mi Calm Calm - N/A   Overcast
10:56 PM 39.9 °F - 39.0 °F 97% 30.05 in 10.0 mi Calm Calm - N/A   Overcast
11:56 PM 39.9 °F - 39.0 °F 97% 30.04 in 7.0 mi Calm Calm - 0.00 in Rain Light Rain